Simultaneous Nadir Overpasses (SNOs) Predictions

Prediction of SNOs between GOES-16 and AQUA Satellite Orbit:

Table of predicted SNOs for the next 14.0 days since TLE Epoch: 12/13/2019
Index Date Time (GOES-16) GOES-16 Lat,Lon AQUA Lat,Lon Distance(km) Time Diff (sec)
1 12/14/2019 06:23:16 0.01, -75.19 -0.57, -72.38 318.98 80
2 12/14/2019 18:44:40 -0.01, -75.20 -0.53, -77.57 270.78 80
3 12/16/2019 18:32:30 0.01, -75.20 0.14, -74.63 65.57 80
4 12/18/2019 18:20:19 0.01, -75.21 0.77, -71.67 402.61 80
5 12/19/2019 06:44:15 -0.01, -75.21 0.32, -76.83 183.63 80
6 12/21/2019 06:29:24 -0.01, -75.23 -0.31, -73.87 154.45 80
7 12/21/2019 18:53:28 0.01, -75.24 -0.80, -79.06 434.96 80
8 12/23/2019 06:17:13 -0.01, -75.25 -0.94, -70.92 493.16 80
9 12/23/2019 18:41:17 0.00, -75.26 -0.17, -76.11 96.08 80
10 12/25/2019 18:26:26 0.00, -75.29 0.46, -73.15 243.20 80
11 12/26/2019 06:50:21 0.00, -75.30 0.67, -78.30 342.17 80




NCC Satellite Simultaneous Nadir Overpasses (SNOs) Prediction Service
